When you browse on this site, cookies collect data to enhance your experience and personalize the content and advertising you see.
Visit our Privacy Policy to learn more. By continuing to use the site, you agree to this use of cookies and data.
  • In Italy
  • List of Countries
  • For 7 days
  • Water Temperature
  • Satellite Maps
  • Weather Map
  • Weather Widgets
  • user-avatar
    Login

    Hourly Weather Teterki

    Today, 20 April, Saturday

    Time Temperature Precipitation Wind Pressure Humidity
    00:00 +6°C° 0 mm 1 mps 750 mmHg 51%
    01:00 +6°C° 0 mm 1 mps 749 mmHg 52%
    02:00 +6°C° 0 mm 1 mps 749 mmHg 54%
    03:00 +4°C° 0 mm 0 mps 749 mmHg 55%
    04:00 +4°C° 0 mm 0 mps 749 mmHg 56%
    05:00 +5°C° 0 mm 1 mps 749 mmHg 57%
    06:00 +4°C° 0 mm 1 mps 749 mmHg 58%
    07:00 +6°C° 0 mm 1 mps 749 mmHg 54%
    08:00 +8°C° 0 mm 1 mps 749 mmHg 50%
    09:00 +9°C° 0 mm 1 mps 748 mmHg 45%
    10:00 +9°C° 0 mm 2 mps 748 mmHg 41%
    11:00 +10°C° 0 mm 2 mps 748 mmHg 38%
    12:00 +12°C° 0 mm 2 mps 748 mmHg 34%
    13:00 +12°C° 0 mm 2 mps 748 mmHg 34%
    14:00 +13°C° 0 mm 2 mps 748 mmHg 33%
    15:00 +13°C° 0 mm 2 mps 748 mmHg 32%
    16:00 +13°C° 0 mm 2 mps 747 mmHg 33%
    17:00 +13°C° 0 mm 2 mps 747 mmHg 34%
    18:00 +13°C° 0 mm 2 mps 747 mmHg 35%
    19:00 +12°C° 0 mm 2 mps 747 mmHg 38%
    20:00 +11°C° 0 mm 1 mps 747 mmHg 40%
    21:00 +11°C° 0 mm 1 mps 747 mmHg 42%
    22:00 +10°C° 0 mm 1 mps 747 mmHg 44%
    23:00 +8°C° 0 mm 2 mps 748 mmHg 45%

    Tomorrow, 21 April, Sunday

    Time Temperature Precipitation Wind Pressure Humidity
    00:00 +8°C° 0 mm 2 mps 748 mmHg 46%
    01:00 +7°C° 0 mm 2 mps 748 mmHg 47%
    02:00 +6°C° 0 mm 2 mps 748 mmHg 48%
    03:00 +6°C° 0 mm 2 mps 748 mmHg 49%
    04:00 +5°C° 0 mm 2 mps 748 mmHg 51%
    05:00 +6°C° 0 mm 1 mps 748 mmHg 52%
    06:00 +6°C° 0 mm 1 mps 748 mmHg 53%
    07:00 +7°C° 0 mm 1 mps 749 mmHg 48%
    08:00 +9°C° 0 mm 1 mps 749 mmHg 43%
    09:00 +11°C° 0 mm 1 mps 749 mmHg 39%
    10:00 +12°C° 0 mm 2 mps 749 mmHg 35%
    11:00 +13°C° 0 mm 2 mps 750 mmHg 31%
    12:00 +14°C° 0 mm 2 mps 750 mmHg 27%
    13:00 +14°C° 0 mm 2 mps 750 mmHg 27%
    14:00 +14°C° 0 mm 2 mps 749 mmHg 26%
    15:00 +15°C° 0 mm 2 mps 749 mmHg 26%
    16:00 +15°C° 0 mm 2 mps 749 mmHg 26%
    17:00 +15°C° 0 mm 1 mps 749 mmHg 27%
    18:00 +14°C° 0 mm 1 mps 749 mmHg 28%
    19:00 +13°C° 0 mm 1 mps 749 mmHg 31%
    20:00 +12°C° 0 mm 1 mps 749 mmHg 34%
    21:00 +10°C° 0 mm 0 mps 750 mmHg 38%
    22:00 +11°C° 0 mm 1 mps 750 mmHg 39%
    23:00 +10°C° 0 mm 1 mps 750 mmHg 40%

    Day after tomorrow, 22 April, Monday

    Time Temperature Precipitation Wind Pressure Humidity
    00:00 +10°C° 0 mm 1 mps 750 mmHg 41%
    01:00 +10°C° 0 mm 1 mps 750 mmHg 42%
    02:00 +10°C° 0 mm 1 mps 750 mmHg 43%
    03:00 +8°C° 0 mm 2 mps 750 mmHg 44%
    04:00 +8°C° 0 mm 2 mps 750 mmHg 45%
    05:00 +8°C° 0 mm 2 mps 751 mmHg 47%
    06:00 +8°C° 0 mm 2 mps 751 mmHg 48%
    07:00 +9°C° 0 mm 2 mps 751 mmHg 46%
    08:00 +10°C° 0 mm 2 mps 751 mmHg 44%
    09:00 +12°C° 0 mm 2 mps 751 mmHg 42%
    10:00 +13°C° 0 mm 2 mps 751 mmHg 39%
    11:00 +14°C° 0 mm 2 mps 751 mmHg 36%
    12:00 +14°C° 0 mm 3 mps 751 mmHg 33%
    13:00 +14°C° 0 mm 3 mps 751 mmHg 34%
    14:00 +15°C° 0 mm 2 mps 751 mmHg 35%
    15:00 +15°C° 0 mm 2 mps 751 mmHg 36%
    16:00 +15°C° 0 mm 2 mps 751 mmHg 37%
    17:00 +15°C° 0 mm 2 mps 750 mmHg 39%
    18:00 +15°C° 0 mm 2 mps 750 mmHg 40%
    19:00 +14°C° 0 mm 2 mps 751 mmHg 43%
    20:00 +12°C° 0 mm 1 mps 751 mmHg 47%
    21:00 +11°C° 0 mm 1 mps 751 mmHg 50%
    22:00 +11°C° 0 mm 1 mps 751 mmHg 50%
    23:00 +10°C° 0 mm 0 mps 751 mmHg 50%

    23 April, Tuesday

    Time Temperature Precipitation Wind Pressure Humidity
    00:00 +10°C° 0 mm 0 mps 752 mmHg 50%
    01:00 +10°C° 0 mm 0 mps 752 mmHg 50%
    02:00 +11°C° 0 mm 1 mps 752 mmHg 50%
    03:00 +11°C° 0 mm 1 mps 752 mmHg 50%
    04:00 +11°C° 0 mm 1 mps 752 mmHg 52%
    05:00 +9°C° 0 mm 2 mps 752 mmHg 53%
    06:00 +9°C° 0 mm 2 mps 752 mmHg 55%
    07:00 +12°C° 0 mm 2 mps 752 mmHg 52%
    08:00 +13°C° 0 mm 2 mps 752 mmHg 49%
    09:00 +14°C° 0 mm 2 mps 753 mmHg 46%
    10:00 +15°C° 0 mm 2 mps 753 mmHg 42%
    11:00 +16°C° 0 mm 2 mps 752 mmHg 38%
    12:00 +17°C° 0 mm 2 mps 752 mmHg 34%
    13:00 +17°C° 0 mm 2 mps 752 mmHg 34%
    14:00 +17°C° 0 mm 2 mps 752 mmHg 34%
    15:00 +17°C° 0 mm 2 mps 752 mmHg 34%
    16:00 +17°C° 0 mm 2 mps 751 mmHg 36%
    17:00 +17°C° 0 mm 2 mps 751 mmHg 37%
    18:00 +17°C° 0 mm 3 mps 751 mmHg 39%
    19:00 +16°C° 0 mm 3 mps 751 mmHg 44%
    20:00 +13°C° 0 mm 3 mps 751 mmHg 49%
    21:00 +12°C° 0 mm 3 mps 751 mmHg 54%
    22:00 +11°C° 0 mm 3 mps 751 mmHg 56%
    23:00 +11°C° 0 mm 3 mps 752 mmHg 58%

    24 April, Wednesday

    Time Temperature Precipitation Wind Pressure Humidity
    00:00 +11°C° 0 mm 3 mps 752 mmHg 60%
    01:00 +11°C° 0 mm 3 mps 752 mmHg 62%
    02:00 +10°C° 0 mm 3 mps 752 mmHg 65%
    03:00 +10°C° 0 mm 3 mps 752 mmHg 68%
    04:00 +10°C° 0 mm 3 mps 752 mmHg 70%
    05:00 +9°C° 0 mm 3 mps 752 mmHg 71%
    06:00 +9°C° 0 mm 3 mps 752 mmHg 73%
    07:00 +11°C° 0 mm 3 mps 752 mmHg 67%
    08:00 +12°C° 0 mm 3 mps 752 mmHg 62%
    09:00 +14°C° 0 mm 3 mps 753 mmHg 56%
    10:00 +15°C° 0 mm 4 mps 752 mmHg 50%
    11:00 +18°C° 0 mm 4 mps 752 mmHg 45%
    12:00 +19°C° 0 mm 4 mps 752 mmHg 39%
    13:00 +19°C° 0 mm 4 mps 752 mmHg 38%
    14:00 +20°C° 0 mm 4 mps 752 mmHg 37%
    15:00 +20°C° 0 mm 4 mps 752 mmHg 36%
    16:00 +20°C° 0 mm 4 mps 751 mmHg 38%
    17:00 +20°C° 0 mm 4 mps 751 mmHg 39%
    18:00 +19°C° 0 mm 3 mps 751 mmHg 41%
    19:00 +18°C° 0 mm 3 mps 751 mmHg 45%
    20:00 +16°C° 0 mm 2 mps 751 mmHg 49%
    21:00 +15°C° 0 mm 2 mps 751 mmHg 53%
    22:00 +14°C° 0 mm 2 mps 752 mmHg 55%
    23:00 +14°C° 0 mm 2 mps 752 mmHg 57%

    25 April, Thursday

    Time Temperature Precipitation Wind Pressure Humidity
    00:00 +13°C° 0 mm 2 mps 752 mmHg 59%
    01:00 +13°C° 0 mm 2 mps 752 mmHg 61%
    02:00 +12°C° 0 mm 2 mps 752 mmHg 62%
    03:00 +12°C° 0 mm 2 mps 752 mmHg 64%
    04:00 +10°C° 0 mm 2 mps 752 mmHg 65%
    05:00 +10°C° 0 mm 2 mps 752 mmHg 67%
    06:00 +10°C° 0 mm 2 mps 752 mmHg 68%
    07:00 +13°C° 0 mm 2 mps 753 mmHg 62%
    08:00 +14°C° 0 mm 2 mps 753 mmHg 57%
    09:00 +16°C° 0 mm 2 mps 753 mmHg 51%
    10:00 +17°C° 0 mm 2 mps 752 mmHg 47%
    11:00 +19°C° 0 mm 2 mps 752 mmHg 42%
    12:00 +20°C° 0 mm 3 mps 752 mmHg 38%
    13:00 +20°C° 0 mm 3 mps 752 mmHg 37%
    14:00 +21°C° 0 mm 3 mps 752 mmHg 36%
    15:00 +21°C° 0 mm 3 mps 751 mmHg 35%
    16:00 +21°C° 0 mm 2 mps 751 mmHg 36%
    17:00 +21°C° 0 mm 2 mps 751 mmHg 38%
    18:00 +21°C° 0 mm 2 mps 750 mmHg 39%
    19:00 +20°C° 0 mm 1 mps 750 mmHg 43%
    20:00 +19°C° 0 mm 1 mps 750 mmHg 47%
    21:00 +16°C° 0 mm 1 mps 750 mmHg 51%
    22:00 +16°C° 0 mm 1 mps 750 mmHg 53%
    23:00 +14°C° 0 mm 0 mps 750 mmHg 55%
    Show more